Home   Weather   Rochester   Past weeks

Flag for USA Past Weather in Rochester, New York, USA — Yesterday and Last 2 Weeks

Now
57 °F

Drizzle. Fog.


Feels Like: 55 °F
Forecast: 54 / 59 °F
Wind: 9 mph from West

Location: Greater Rochester International Airport

Current Time: May 26, 2017 at 8:56:32 am

Latest Report: May 26, 2017 at 7:54 am


Visibility: 4 mi

Pressure: 29.64 "Hg

Humidity: 93%

Dew Point: 55 °F

Location of RochesterLocation

Past Weather in Rochester — Graph

°F

Rochester Temperature Yesterday

Maximum temperature yesterday: 67 °F (at 12:54 am)
Minimum temperature yesterday: 56 °F (at 7:24 am)
Average temperature yesterday: 59 °F

High & Low Weather Summary for the Past Weeks

 TemperatureHumidityPressure
High86 °F (May 18, 12:54 pm)100% (May 26, 1:04 am)30.36 "Hg (May 26, 1:04 am)
Low42 °F (May 14, 4:29 am)30% (May 24, 5:54 pm)29.49 "Hg (May 25, 6:38 pm)
Average60 °F67%29.89 "Hg
* Reported May 11 7:54 am — May 26 7:39 am, Rochester. Weather by CustomWeather, © 2017

Note: Actual official high and low records may vary slightly from our data, if they occured in-between our weather recording intervals... More about our weather records

Advertising

Rochester Weather History for the Previous 24 Hours

Scroll right to see more
 ConditionsComfort  
Time TempWeatherWind HumidityBarometerVisibility
7:39 am
Fri, May 26
57 °FFog.8 mph93%29.62 "Hg4 mi
6:54 am57 °FLow clouds.8 mph90%29.61 "Hg9 mi
5:54 am57 °FLow clouds.8 mph90%29.59 "Hg10 mi
4:54 am57 °FOvercast.8 mph90%29.56 "Hg10 mi
3:54 am57 °FDrizzle. Low clouds.6 mph93%29.56 "Hg10 mi
2:54 am56 °FDrizzle. Fog.5 mph100%29.55 "Hg4 mi
1:54 am56 °FDrizzle. Fog.5 mph100%29.55 "Hg4 mi
1:21 am56 °FDrizzle. Fog.3 mph97%29.53 "Hg5 mi
1:04 am55 °FDrizzle. Fog.3 mph100%29.54 "Hg3 mi
12:54 am56 °FDrizzle. Fog.3 mph97%29.54 "Hg1 mi
12:21 am56 °FDrizzle. Fog.6 mph97%29.53 "Hg1 mi
11:54 pm
Thu, May 25
56 °FDrizzle. Low clouds.3 mph97%29.54 "Hg7 mi
10:54 pm59 °FLow clouds.5 mph93%29.52 "Hg9 mi
9:54 pm60 °FDrizzle. Low clouds.6 mph93%29.52 "Hg10 mi
9:35 pm59 °FDrizzle. Low clouds.6 mph96%29.51 "Hg10 mi
9:09 pm59 °FDrizzle. Mostly cloudy.6 mph96%29.51 "Hg10 mi
8:54 pm59 °FPartly cloudy.5 mph96%29.52 "Hg10 mi
7:54 pm59 °FDrizzle. Fog.8 mph93%29.52 "Hg6 mi
7:17 pm59 °FMostly cloudy.8 mph93%29.49 "Hg10 mi
7:07 pm59 °FCloudy.8 mph93%29.49 "Hg10 mi
6:38 pm58 °FDrizzle. Cloudy.10 mph93%29.49 "Hg8 mi
5:54 pm58 °FMostly cloudy.13 mph93%29.49 "Hg10 mi
4:54 pm62 °FDrizzle. Mostly cloudy.8 mph83%29.50 "Hg10 mi
3:54 pm60 °FDrizzle. Mostly cloudy.8 mph90%29.51 "Hg7 mi
2:54 pm58 °FDrizzle. Fog.12 mph93%29.53 "Hg4 mi
1:54 pm58 °FFog.9 mph90%29.55 "Hg4 mi
12:54 pm57 °FLight rain. Fog.9 mph93%29.56 "Hg4 mi
12:42 pm57 °FLight rain. Fog.12 mph93%29.56 "Hg2 mi
12:17 pm56 °FRain. Fog.10 mph93%29.56 "Hg4 mi
11:54 am56 °FHeavy rain. Fog.9 mph93%29.57 "Hg2 mi
11:32 am56 °FHeavy rain. Fog.10 mph93%29.56 "Hg1 mi
10:54 am57 °FRain. Fog.12 mph90%29.57 "Hg5 mi
9:54 am57 °FRain. Fog.10 mph90%29.59 "Hg5 mi
8:54 am56 °FRain. Fog.13 mph93%29.61 "Hg3 mi
Weather by CustomWeather, © 2017

See weather overviewHow to use our weather pages